Time,TemperatureF,DewpointF,PressureIn,WindDirection,WindDirectionDegrees,WindSpeedMPH,WindSpeedGustMPH,Humidity,HourlyPrecipIn,Conditions,Clouds,dailyrainin,SoftwareType,DateUTC
2013-02-21 00:00:00,-1.2,-3.9,30.36,SW,217,0.0,0.0,88,0.00,,SKC,0.00,VWS V14.01,2013-02-21 06:00:00,
2013-02-21 00:05:00,-4.3,-7.4,30.37,SW,217,0.0,0.0,86,0.00,,SKC,0.00,VWS V14.01,2013-02-21 06:05:00,
2013-02-21 00:06:00,-1.4,-4.1,30.36,SW,217,0.0,0.0,88,0.00,,SKC,0.00,VWS V14.01,2013-02-21 06:06:00,
2013-02-21 00:10:00,-4.4,-7.5,30.37,SW,217,0.0,0.0,86,0.00,,SKC,0.00,VWS V14.01,2013-02-21 06:10:00,
2013-02-21 00:11:00,-1.6,-4.3,30.36,SW,217,0.0,0.0,88,0.00,,SKC,0.00,VWS V14.01,2013-02-21 06:11:00,
2013-02-21 00:15:00,-4.3,-7.2,30.37,SW,217,0.0,0.0,87,0.00,,SKC,0.00,VWS V14.01,2013-02-21 06:15:00,
2013-02-21 00:16:00,-1.9,-4.6,30.36,SW,217,0.0,0.0,88,0.00,,SKC,0.00,VWS V14.01,2013-02-21 06:16:00,
2013-02-21 00:20:00,-4.7,-7.8,30.37,SW,217,0.0,0.0,86,0.00,,SKC,0.00,VWS V14.01,2013-02-21 06:20:00,
2013-02-21 00:21:00,-2.0,-4.7,30.36,SW,217,0.0,0.0,88,0.00,,SKC,0.00,VWS V14.01,2013-02-21 06:21:00,
2013-02-21 00:25:00,-5.1,-8.2,30.37,SW,217,0.0,0.0,86,0.00,,SKC,0.00,VWS V14.01,2013-02-21 06:25:00,
2013-02-21 00:26:00,-2.4,-5.1,30.36,SW,217,0.0,0.0,88,0.00,,SKC,0.00,VWS V14.01,2013-02-21 06:26:00,
2013-02-21 00:30:00,-5.4,-8.5,30.39,SW,217,0.0,0.0,86,0.00,,SKC,0.00,VWS V14.01,2013-02-21 06:30:00,
2013-02-21 00:31:00,-2.8,-5.7,30.36,SW,217,0.0,0.0,87,0.00,,SKC,0.00,VWS V14.01,2013-02-21 06:31:00,
2013-02-21 00:35:00,-5.7,-9.0,30.39,SW,217,0.0,0.0,85,0.00,,SKC,0.00,VWS V14.01,2013-02-21 06:35:00,
2013-02-21 00:36:00,-3.1,-6.0,30.36,SW,217,0.0,0.0,87,0.00,,SKC,0.00,VWS V14.01,2013-02-21 06:36:00,
2013-02-21 00:40:00,-5.9,-9.2,30.39,SW,217,0.0,0.0,85,0.00,,SKC,0.00,VWS V14.01,2013-02-21 06:40:00,
2013-02-21 00:41:00,-3.2,-6.1,30.36,SW,216,0.0,0.0,87,0.00,,SKC,0.00,VWS V14.01,2013-02-21 06:41:00,
2013-02-21 00:45:00,-5.8,-8.9,30.39,SW,217,0.0,0.0,86,0.00,,SKC,0.00,VWS V14.01,2013-02-21 06:45:00,
2013-02-21 00:46:00,-3.3,-6.2,30.36,SW,217,0.0,0.0,87,0.00,,SKC,0.00,VWS V14.01,2013-02-21 06:46:00,
2013-02-21 00:50:00,-6.0,-9.1,30.39,SW,217,0.0,0.0,86,0.00,,SKC,0.00,VWS V14.01,2013-02-21 06:50:00,
2013-02-21 00:51:00,-3.6,-6.5,30.36,SW,217,0.0,0.0,87,0.00,,SKC,0.00,VWS V14.01,2013-02-21 06:51:00,
2013-02-21 00:55:00,-6.2,-9.3,30.39,SW,217,0.0,0.0,86,0.00,,SKC,0.00,VWS V14.01,2013-02-21 06:55:00,
2013-02-21 00:56:00,-3.9,-6.8,30.36,SW,217,0.0,0.0,87,0.00,,SKC,0.00,VWS V14.01,2013-02-21 06:56:00,
2013-02-21 01:00:00,-6.3,-9.4,30.39,SW,217,0.0,0.0,86,0.00,,SKC,0.00,VWS V14.01,2013-02-21 07:00:00,
2013-02-21 01:01:00,-3.9,-6.8,30.36,SW,217,0.0,0.0,87,0.00,,SKC,0.00,VWS V14.01,2013-02-21 07:01:00,
2013-02-21 01:05:00,-6.2,-9.1,30.39,SW,216,0.0,0.0,87,0.00,,SKC,0.00,VWS V14.01,2013-02-21 07:05:00,
2013-02-21 01:06:00,-4.2,-7.1,30.37,SW,217,0.0,0.0,87,0.00,,SKC,0.00,VWS V14.01,2013-02-21 07:06:00,
2013-02-21 01:10:00,-6.2,-9.3,30.39,SW,217,0.0,0.0,86,0.00,,SKC,0.00,VWS V14.01,2013-02-21 07:10:00,
2013-02-21 01:11:00,-4.5,-7.6,30.37,SW,217,0.0,0.0,86,0.00,,SKC,0.00,VWS V14.01,2013-02-21 07:11:00,
2013-02-21 01:15:00,-6.2,-9.3,30.39,SW,217,0.0,0.0,86,0.00,,SKC,0.00,VWS V14.01,2013-02-21 07:15:00,
2013-02-21 01:16:00,-4.3,-7.2,30.37,SW,217,0.0,0.0,87,0.00,,SKC,0.00,VWS V14.01,2013-02-21 07:16:00,
2013-02-21 01:20:00,-6.5,-9.6,30.39,SW,217,0.0,0.0,86,0.00,,SKC,0.00,VWS V14.01,2013-02-21 07:20:00,
2013-02-21 01:21:00,-4.6,-7.7,30.37,SW,217,0.0,0.0,86,0.00,,SKC,0.00,VWS V14.01,2013-02-21 07:21:00,
2013-02-21 01:25:00,-6.3,-9.4,30.39,SW,217,0.0,0.0,86,0.00,,SKC,0.00,VWS V14.01,2013-02-21 07:25:00,
2013-02-21 01:26:00,-5.0,-8.1,30.37,SW,217,0.0,0.0,86,0.00,,SKC,0.00,VWS V14.01,2013-02-21 07:26:00,
2013-02-21 01:30:00,-6.2,-9.1,30.39,SW,217,0.0,0.0,87,0.00,,SKC,0.00,VWS V14.01,2013-02-21 07:30:00,
2013-02-21 01:31:00,-5.3,-8.4,30.39,SW,217,0.0,0.0,86,0.00,,SKC,0.00,VWS V14.01,2013-02-21 07:31:00,
2013-02-21 01:35:00,-6.6,-9.7,30.39,SW,217,0.0,0.0,86,0.00,,SKC,0.00,VWS V14.01,2013-02-21 07:35:00,
2013-02-21 01:36:00,-5.6,-8.9,30.39,SW,217,0.0,0.0,85,0.00,,SKC,0.00,VWS V14.01,2013-02-21 07:36:00,
2013-02-21 01:40:00,-6.8,-10.1,30.39,SW,217,0.0,0.0,85,0.00,,SKC,0.00,VWS V14.01,2013-02-21 07:40:00,
2013-02-21 01:41:00,-5.9,-9.2,30.39,SW,217,0.0,0.0,85,0.00,,SKC,0.00,VWS V14.01,2013-02-21 07:41:00,
2013-02-21 01:45:00,-6.8,-9.9,30.39,SW,216,0.0,0.0,86,0.00,,SKC,0.00,VWS V14.01,2013-02-21 07:45:00,
2013-02-21 01:46:00,-5.8,-8.9,30.39,SW,217,0.0,0.0,86,0.00,,SKC,0.00,VWS V14.01,2013-02-21 07:46:00,
2013-02-21 01:50:00,-6.9,-10.0,30.39,SW,217,0.0,0.0,86,0.00,,SKC,0.00,VWS V14.01,2013-02-21 07:50:00,
2013-02-21 01:51:00,-5.9,-9.0,30.39,SW,217,0.0,0.0,86,0.00,,SKC,0.00,VWS V14.01,2013-02-21 07:51:00,
2013-02-21 01:55:00,-7.0,-10.1,30.39,SW,217,0.0,0.0,86,0.00,,SKC,0.00,VWS V14.01,2013-02-21 07:55:00,
2013-02-21 01:56:00,-6.2,-9.3,30.39,SW,217,0.0,0.0,86,0.00,,SKC,0.00,VWS V14.01,2013-02-21 07:56:00,
2013-02-21 02:00:00,-7.2,-10.5,30.39,SW,216,0.0,0.0,85,0.00,,SKC,0.00,VWS V14.01,2013-02-21 08:00:00,
2013-02-21 02:01:00,-6.3,-9.4,30.39,SW,217,0.0,0.0,86,0.00,,SKC,0.00,VWS V14.01,2013-02-21 08:01:00,
2013-02-21 02:05:00,-7.4,-10.7,30.39,SW,217,0.0,0.0,85,0.00,,SKC,0.00,VWS V14.01,2013-02-21 08:05:00,
2013-02-21 02:06:00,-6.3,-9.1,30.39,SW,217,0.0,0.0,87,0.00,,SKC,0.00,VWS V14.01,2013-02-21 08:06:00,
2013-02-21 02:10:00,-7.3,-10.4,30.39,SW,217,0.0,0.0,86,0.00,,SKC,0.00,VWS V14.01,2013-02-21 08:10:00,
2013-02-21 02:11:00,-6.2,-9.3,30.39,SW,217,0.0,0.0,86,0.00,,SKC,0.00,VWS V14.01,2013-02-21 08:11:00,
2013-02-21 02:15:00,-7.2,-10.3,30.39,SW,217,0.0,0.0,86,0.00,,SKC,0.00,VWS V14.01,2013-02-21 08:15:00,
2013-02-21 02:16:00,-6.2,-9.3,30.39,SW,217,0.0,0.0,86,0.00,,SKC,0.00,VWS V14.01,2013-02-21 08:16:00,
2013-02-21 02:20:00,-7.2,-10.3,30.39,SW,217,0.0,0.0,86,0.00,,SKC,0.00,VWS V14.01,2013-02-21 08:20:00,
2013-02-21 02:22:00,-6.5,-9.6,30.39,SW,217,0.0,0.0,86,0.00,,SKC,0.00,VWS V14.01,2013-02-21 08:22:00,
2013-02-21 02:25:00,-7.1,-10.2,30.39,SW,217,0.0,0.0,86,0.00,,SKC,0.00,VWS V14.01,2013-02-21 08:25:00,
2013-02-21 02:27:00,-6.4,-9.5,30.39,SW,216,0.0,0.0,86,0.00,,SKC,0.00,VWS V14.01,2013-02-21 08:27:00,
2013-02-21 02:30:00,-6.8,-9.6,30.40,SW,217,0.0,0.0,87,0.00,,SKC,0.00,VWS V14.01,2013-02-21 08:30:00,
2013-02-21 02:32:00,-6.2,-9.1,30.39,SW,217,0.0,0.0,87,0.00,,SKC,0.00,VWS V14.01,2013-02-21 08:32:00,
2013-02-21 02:35:00,-6.4,-9.0,30.40,SW,217,0.0,0.0,88,0.00,,SKC,0.00,VWS V14.01,2013-02-21 08:35:00,
2013-02-21 02:37:00,-6.5,-9.6,30.39,SW,217,0.0,0.0,86,0.00,,SKC,0.00,VWS V14.01,2013-02-21 08:37:00,
2013-02-21 02:40:00,-6.1,-8.7,30.40,SW,217,0.0,0.0,88,0.00,,SKC,0.00,VWS V14.01,2013-02-21 08:40:00,
2013-02-21 02:42:00,-6.8,-10.1,30.39,SW,217,0.0,0.0,85,0.00,,SKC,0.00,VWS V14.01,2013-02-21 08:42:00,
2013-02-21 02:45:00,-6.4,-9.0,30.41,SW,217,0.0,0.0,88,0.00,,SKC,0.00,VWS V14.01,2013-02-21 08:45:00,
2013-02-21 02:47:00,-6.9,-10.0,30.39,SW,217,0.0,0.0,86,0.00,,SKC,0.00,VWS V14.01,2013-02-21 08:47:00,
2013-02-21 02:50:00,-6.8,-9.6,30.41,SW,217,0.0,0.0,87,0.00,,SKC,0.00,VWS V14.01,2013-02-21 08:50:00,
2013-02-21 02:52:00,-6.9,-10.0,30.39,SW,217,0.0,0.0,86,0.00,,SKC,0.00,VWS V14.01,2013-02-21 08:52:00,
2013-02-21 02:55:00,-6.8,-9.6,30.41,SW,217,0.0,0.0,87,0.00,,SKC,0.00,VWS V14.01,2013-02-21 08:55:00,
2013-02-21 02:57:00,-7.0,-10.1,30.39,SW,217,0.0,0.0,86,0.00,,SKC,0.00,VWS V14.01,2013-02-21 08:57:00,
2013-02-21 03:00:00,-6.6,-9.4,30.41,SW,217,0.0,1.0,87,0.00,,SKC,0.00,VWS V14.01,2013-02-21 09:00:00,
2013-02-21 03:02:00,-7.1,-10.4,30.39,SW,216,0.0,0.0,85,0.00,,SKC,0.00,VWS V14.01,2013-02-21 09:02:00,
2013-02-21 03:05:00,-6.1,-8.7,30.41,SW,217,0.0,0.0,88,0.00,,SKC,0.00,VWS V14.01,2013-02-21 09:05:00,
2013-02-21 03:07:00,-7.4,-10.7,30.39,SW,217,0.0,0.0,85,0.00,,SKC,0.00,VWS V14.01,2013-02-21 09:07:00,
2013-02-21 03:10:00,-5.7,-8.3,30.41,SW,217,0.0,0.0,88,0.00,,SKC,0.00,VWS V14.01,2013-02-21 09:10:00,
2013-02-21 03:12:00,-7.3,-10.4,30.39,SW,217,0.0,0.0,86,0.00,,SKC,0.00,VWS V14.01,2013-02-21 09:12:00,
2013-02-21 03:15:00,-5.3,-7.9,30.42,SW,217,0.0,0.0,88,0.00,,SKC,0.00,VWS V14.01,2013-02-21 09:15:00,
2013-02-21 03:17:00,-7.2,-10.3,30.39,SW,217,0.0,0.0,86,0.00,,SKC,0.00,VWS V14.01,2013-02-21 09:17:00,
2013-02-21 03:20:00,-5.2,-8.1,30.42,SW,217,0.0,0.0,87,0.00,,SKC,0.00,VWS V14.01,2013-02-21 09:20:00,
2013-02-21 03:22:00,-7.2,-10.3,30.39,SW,217,0.0,0.0,86,0.00,,SKC,0.00,VWS V14.01,2013-02-21 09:22:00,
2013-02-21 03:27:00,-7.1,-10.2,30.39,SW,217,0.0,0.0,86,0.00,,SKC,0.00,VWS V14.01,2013-02-21 09:27:00,
2013-02-21 03:30:00,-4.9,-7.8,30.43,SW,217,0.0,0.0,87,0.00,,SKC,0.00,VWS V14.01,2013-02-21 09:30:00,
2013-02-21 03:32:00,-6.8,-9.6,30.40,SW,217,0.0,0.0,87,0.00,,SKC,0.00,VWS V14.01,2013-02-21 09:32:00,
2013-02-21 03:35:00,-4.4,-7.0,30.43,SW,217,0.0,0.0,88,0.00,,SKC,0.00,VWS V14.01,2013-02-21 09:35:00,
2013-02-21 03:37:00,-6.4,-9.0,30.40,SW,217,0.0,0.0,88,0.00,,SKC,0.00,VWS V14.01,2013-02-21 09:37:00,
2013-02-21 03:40:00,-4.0,-6.7,30.43,SW,217,0.0,0.0,88,0.00,,SKC,0.00,VWS V14.01,2013-02-21 09:40:00,
2013-02-21 03:42:00,-6.2,-8.8,30.40,SW,217,0.0,0.0,88,0.00,,SKC,0.00,VWS V14.01,2013-02-21 09:42:00,
2013-02-21 03:45:00,-3.8,-6.4,30.44,SW,217,0.0,0.0,88,0.00,,SKC,0.00,VWS V14.01,2013-02-21 09:45:00,
2013-02-21 03:47:00,-6.4,-9.0,30.41,SW,217,0.0,0.0,88,0.00,,SKC,0.00,VWS V14.01,2013-02-21 09:47:00,
2013-02-21 03:50:00,-3.4,-6.1,30.44,SW,217,0.0,0.0,88,0.00,,SKC,0.00,VWS V14.01,2013-02-21 09:50:00,
2013-02-21 03:52:00,-6.8,-9.6,30.41,SW,217,0.0,0.0,87,0.00,,SKC,0.00,VWS V14.01,2013-02-21 09:52:00,
2013-02-21 03:55:00,-3.3,-6.2,30.44,SW,217,0.0,0.0,87,0.00,,SKC,0.00,VWS V14.01,2013-02-21 09:55:00,
2013-02-21 03:57:00,-6.8,-9.6,30.41,SW,217,0.0,0.0,87,0.00,,SKC,0.00,VWS V14.01,2013-02-21 09:57:00,
2013-02-21 04:00:00,-3.3,-6.4,30.44,SW,217,0.0,0.0,86,0.00,,SKC,0.00,VWS V14.01,2013-02-21 10:00:00,
2013-02-21 04:02:00,-6.5,-9.4,30.41,SW,217,0.0,0.0,87,0.00,,SKC,0.00,VWS V14.01,2013-02-21 10:02:00,
2013-02-21 04:05:00,-3.0,-5.9,30.44,SW,217,0.0,0.0,87,0.00,,SKC,0.00,VWS V14.01,2013-02-21 10:05:00,
2013-02-21 04:07:00,-6.1,-8.7,30.41,SW,217,0.0,0.0,88,0.00,,SKC,0.00,VWS V14.01,2013-02-21 10:07:00,
2013-02-21 04:10:00,-2.7,-5.6,30.44,SW,217,0.0,0.0,87,0.00,,SKC,0.00,VWS V14.01,2013-02-21 10:10:00,
2013-02-21 04:12:00,-5.7,-8.3,30.41,SW,217,0.0,0.0,88,0.00,,SKC,0.00,VWS V14.01,2013-02-21 10:12:00,
2013-02-21 04:15:00,-2.5,-5.4,30.44,SW,217,0.0,0.0,87,0.00,,SKC,0.00,VWS V14.01,2013-02-21 10:15:00,
2013-02-21 04:17:00,-5.3,-7.9,30.42,SW,217,0.0,0.0,88,0.00,,SKC,0.00,VWS V14.01,2013-02-21 10:17:00,
2013-02-21 04:20:00,-2.0,-4.7,30.44,SW,217,0.0,0.0,88,0.00,,SKC,0.00,VWS V14.01,2013-02-21 10:20:00,
2013-02-21 04:22:00,-5.2,-8.1,30.42,SW,217,0.0,0.0,87,0.00,,SKC,0.00,VWS V14.01,2013-02-21 10:22:00,
2013-02-21 04:25:00,-1.9,-4.6,30.44,SW,217,0.0,0.0,88,0.00,,SKC,0.00,VWS V14.01,2013-02-21 10:25:00,
2013-02-21 04:27:00,-5.1,-8.0,30.42,SW,217,0.0,0.0,87,0.00,,SKC,0.00,VWS V14.01,2013-02-21 10:27:00,
2013-02-21 04:30:00,-1.9,-4.8,30.44,SW,217,0.0,0.0,87,0.00,,SKC,0.00,VWS V14.01,2013-02-21 10:30:00,
2013-02-21 04:32:00,-4.8,-7.7,30.43,SW,217,0.0,0.0,87,0.00,,SKC,0.00,VWS V14.01,2013-02-21 10:32:00,
2013-02-21 04:35:00,-1.6,-4.3,30.44,SW,216,0.0,0.0,88,0.00,,SKC,0.00,VWS V14.01,2013-02-21 10:35:00,
2013-02-21 04:37:00,-4.4,-7.0,30.43,SW,217,0.0,0.0,88,0.00,,SKC,0.00,VWS V14.01,2013-02-21 10:37:00,
2013-02-21 04:40:00,-1.5,-4.4,30.44,SW,217,0.0,0.0,87,0.00,,SKC,0.00,VWS V14.01,2013-02-21 10:40:00,
2013-02-21 04:42:00,-4.0,-6.7,30.43,SW,217,0.0,0.0,88,0.00,,SKC,0.00,VWS V14.01,2013-02-21 10:42:00,
2013-02-21 04:45:00,-1.5,-4.4,30.44,SW,217,0.0,0.0,87,0.00,,SKC,0.00,VWS V14.01,2013-02-21 10:45:00,
2013-02-21 04:47:00,-3.8,-6.4,30.44,SW,217,0.0,0.0,88,0.00,,SKC,0.00,VWS V14.01,2013-02-21 10:47:00,
2013-02-21 04:50:00,-1.4,-4.3,30.44,SW,217,0.0,0.0,87,0.00,,SKC,0.00,VWS V14.01,2013-02-21 10:50:00,
2013-02-21 04:52:00,-3.4,-6.1,30.44,SW,217,0.0,0.0,88,0.00,,SKC,0.00,VWS V14.01,2013-02-21 10:52:00,
2013-02-21 04:55:00,-1.2,-4.1,30.44,SW,217,0.0,0.0,87,0.00,,SKC,0.00,VWS V14.01,2013-02-21 10:55:00,
2013-02-21 04:58:00,-3.3,-6.2,30.44,SW,217,0.0,0.0,87,0.00,,SKC,0.00,VWS V14.01,2013-02-21 10:58:00,
2013-02-21 05:00:00,-1.0,-3.7,30.45,SW,217,0.0,0.0,88,0.00,,SKC,0.00,VWS V14.01,2013-02-21 11:00:00,
2013-02-21 05:03:00,-3.2,-6.3,30.44,SW,217,0.0,0.0,86,0.00,,SKC,0.00,VWS V14.01,2013-02-21 11:03:00,
2013-02-21 05:05:00,-0.9,-3.8,30.45,SW,217,0.0,0.0,87,0.00,,SKC,0.00,VWS V14.01,2013-02-21 11:05:00,
2013-02-21 05:08:00,-2.9,-5.8,30.44,SW,217,0.0,0.0,87,0.00,,SKC,0.00,VWS V14.01,2013-02-21 11:08:00,
2013-02-21 05:10:00,-0.7,-3.4,30.45,SW,216,0.0,0.0,88,0.00,,SKC,0.00,VWS V14.01,2013-02-21 11:10:00,
2013-02-21 05:13:00,-2.7,-5.6,30.44,SW,217,0.0,0.0,87,0.00,,SKC,0.00,VWS V14.01,2013-02-21 11:13:00,
2013-02-21 05:15:00,-0.4,-3.1,30.45,SW,216,0.0,0.0,88,0.00,,SKC,0.00,VWS V14.01,2013-02-21 11:15:00,
2013-02-21 05:18:00,-2.5,-5.4,30.44,SW,217,0.0,0.0,87,0.00,,SKC,0.00,VWS V14.01,2013-02-21 11:18:00,
2013-02-21 05:20:00,-0.1,-2.5,30.45,SW,217,0.0,1.0,89,0.00,,SKC,0.00,VWS V14.01,2013-02-21 11:20:00,
2013-02-21 05:23:00,-1.9,-4.6,30.44,SW,217,0.0,0.0,88,0.00,,SKC,0.00,VWS V14.01,2013-02-21 11:23:00,
2013-02-21 05:25:00,0.3,-2.2,30.45,SW,217,0.0,0.0,89,0.00,,SKC,0.00,VWS V14.01,2013-02-21 11:25:00,
2013-02-21 05:28:00,-1.9,-4.6,30.44,SW,217,0.0,0.0,88,0.00,,SKC,0.00,VWS V14.01,2013-02-21 11:28:00,
2013-02-21 05:30:00,0.4,-2.1,30.44,SW,217,0.0,0.0,89,0.00,,SKC,0.00,VWS V14.01,2013-02-21 11:30:00,
2013-02-21 05:33:00,-1.8,-4.7,30.44,SW,216,0.0,0.0,87,0.00,,SKC,0.00,VWS V14.01,2013-02-21 11:33:00,
2013-02-21 05:35:00,0.6,-1.9,30.44,SW,217,0.0,0.0,89,0.00,,SKC,0.00,VWS V14.01,2013-02-21 11:35:00,
2013-02-21 05:38:00,-1.5,-4.2,30.44,SW,217,0.0,0.0,88,0.00,,SKC,0.00,VWS V14.01,2013-02-21 11:38:00,
2013-02-21 05:40:00,1.0,-1.5,30.44,SW,216,0.0,0.0,89,0.00,,SKC,0.00,VWS V14.01,2013-02-21 11:40:00,
2013-02-21 05:43:00,-1.5,-4.4,30.44,SW,217,0.0,0.0,87,0.00,,SKC,0.00,VWS V14.01,2013-02-21 11:43:00,
2013-02-21 05:45:00,1.3,-1.2,30.44,SE,130,0.0,1.0,89,0.00,,SKC,0.00,VWS V14.01,2013-02-21 11:45:00,
2013-02-21 05:48:00,-1.5,-4.4,30.44,SW,217,0.0,0.0,87,0.00,,SKC,0.00,VWS V14.01,2013-02-21 11:48:00,
2013-02-21 05:50:00,1.5,-1.0,30.44,SE,130,0.0,0.0,89,0.00,,SKC,0.00,VWS V14.01,2013-02-21 11:50:00,
2013-02-21 05:53:00,-1.4,-4.3,30.44,SW,217,0.0,0.0,87,0.00,,SKC,0.00,VWS V14.01,2013-02-21 11:53:00,
2013-02-21 05:55:00,1.8,-0.7,30.44,NE,46,0.0,1.0,89,0.00,,SKC,0.00,VWS V14.01,2013-02-21 11:55:00,
2013-02-21 05:58:00,-1.2,-4.1,30.44,SW,217,0.0,0.0,87,0.00,,SKC,0.00,VWS V14.01,2013-02-21 11:58:00,
2013-02-21 06:00:00,2.2,-0.1,30.42,NE,45,0.0,1.0,90,0.00,,SKC,0.00,VWS V14.01,2013-02-21 12:00:00,
2013-02-21 06:03:00,-1.0,-3.7,30.45,SW,217,0.0,0.0,88,0.00,,SKC,0.00,VWS V14.01,2013-02-21 12:03:00,
2013-02-21 06:05:00,2.5,0.2,30.42,NE,46,0.0,1.0,90,0.00,,SKC,0.00,VWS V14.01,2013-02-21 12:05:00,
2013-02-21 06:08:00,-0.9,-3.8,30.45,SW,217,0.0,0.0,87,0.00,,SKC,0.00,VWS V14.01,2013-02-21 12:08:00,
2013-02-21 06:10:00,2.8,0.5,30.42,ENE,66,1.0,2.0,90,0.00,,SKC,0.00,VWS V14.01,2013-02-21 12:10:00,
2013-02-21 06:13:00,-0.6,-3.3,30.45,SW,217,0.0,0.0,88,0.00,,SKC,0.00,VWS V14.01,2013-02-21 12:13:00,
2013-02-21 06:15:00,3.2,0.9,30.41,East,80,0.0,3.0,90,0.00,,SKC,0.00,VWS V14.01,2013-02-21 12:15:00,
2013-02-21 06:18:00,-0.4,-3.1,30.45,SW,217,0.0,0.0,88,0.00,,SKC,0.00,VWS V14.01,2013-02-21 12:18:00,
2013-02-21 06:20:00,3.5,1.2,30.41,ENE,73,1.0,2.0,90,0.00,,SKC,0.00,VWS V14.01,2013-02-21 12:20:00,
2013-02-21 06:23:00,-0.1,-2.5,30.45,SW,217,0.0,0.0,89,0.00,,SKC,0.00,VWS V14.01,2013-02-21 12:23:00,
2013-02-21 06:25:00,3.9,1.6,30.41,NE,47,0.0,5.0,90,0.00,,SKC,0.00,VWS V14.01,2013-02-21 12:25:00,
2013-02-21 06:28:00,0.3,-2.2,30.45,SW,217,0.0,0.0,89,0.00,,SKC,0.00,VWS V14.01,2013-02-21 12:28:00,
2013-02-21 06:30:00,4.2,1.9,30.39,NE,51,0.0,3.0,90,0.00,,SKC,0.00,VWS V14.01,2013-02-21 12:30:00,
2013-02-21 06:33:00,0.5,-2.0,30.44,SW,217,0.0,0.0,89,0.00,,SKC,0.00,VWS V14.01,2013-02-21 12:33:00,
2013-02-21 06:35:00,4.6,2.3,30.39,ENE,76,3.0,6.0,90,0.00,,SKC,0.00,VWS V14.01,2013-02-21 12:35:00,
2013-02-21 06:38:00,0.7,-1.8,30.44,SW,217,0.0,0.0,89,0.00,,SKC,0.00,VWS V14.01,2013-02-21 12:38:00,
2013-02-21 06:40:00,4.8,2.5,30.39,NNE,20,1.0,3.0,90,0.00,,SKC,0.00,VWS V14.01,2013-02-21 12:40:00,
2013-02-21 06:43:00,1.0,-1.5,30.44,SW,217,0.0,0.0,89,0.00,,SKC,0.00,VWS V14.01,2013-02-21 12:43:00,
2013-02-21 06:45:00,5.1,2.8,30.38,East,93,1.0,3.0,90,0.00,,SKC,0.00,VWS V14.01,2013-02-21 12:45:00,
2013-02-21 06:48:00,1.4,-1.1,30.44,SE,130,0.0,0.0,89,0.00,,SKC,0.00,VWS V14.01,2013-02-21 12:48:00,
2013-02-21 06:50:00,5.4,3.1,30.38,NE,51,0.0,5.0,90,0.00,,SKC,0.00,VWS V14.01,2013-02-21 12:50:00,
2013-02-21 06:53:00,1.5,-1.0,30.44,SE,130,0.0,0.0,89,0.00,,SKC,0.00,VWS V14.01,2013-02-21 12:53:00,
2013-02-21 06:55:00,5.7,3.4,30.38,NNE,22,2.0,3.0,90,0.00,,SKC,0.00,VWS V14.01,2013-02-21 12:55:00,
2013-02-21 06:58:00,1.9,-0.6,30.44,NE,44,0.0,1.0,89,0.00,,SKC,0.00,VWS V14.01,2013-02-21 12:58:00,
2013-02-21 07:00:00,5.9,3.4,30.36,East,96,1.0,7.0,89,0.00,,SKC,0.00,VWS V14.01,2013-02-21 13:00:00,
2013-02-21 07:03:00,2.3,0.0,30.42,NE,46,0.0,0.0,90,0.00,,SKC,0.00,VWS V14.01,2013-02-21 13:03:00,
2013-02-21 07:05:00,6.2,3.7,30.36,ENE,78,2.0,6.0,89,0.00,,SKC,0.00,VWS V14.01,2013-02-21 13:05:00,
2013-02-21 07:09:00,2.6,0.3,30.42,NE,46,0.0,0.0,90,0.00,,SKC,0.00,VWS V14.01,2013-02-21 13:09:00,
2013-02-21 07:10:00,6.5,4.0,30.36,NNE,29,2.0,6.0,89,0.00,,SKC,0.00,VWS V14.01,2013-02-21 13:10:00,
2013-02-21 07:14:00,3.0,0.7,30.42,North,350,0.0,1.0,90,0.00,,SKC,0.00,VWS V14.01,2013-02-21 13:14:00,
2013-02-21 07:15:00,6.7,4.2,30.35,NW,316,0.0,6.0,89,0.00,,SKC,0.00,VWS V14.01,2013-02-21 13:15:00,
2013-02-21 07:19:00,3.3,1.0,30.41,East,80,0.0,1.0,90,0.00,,SKC,0.00,VWS V14.01,2013-02-21 13:19:00,
2013-02-21 07:20:00,7.0,4.4,30.35,SE,135,0.0,4.0,89,0.00,,SKC,0.00,VWS V14.01,2013-02-21 13:20:00,
2013-02-21 07:24:00,3.6,1.3,30.41,ENE,62,1.0,1.0,90,0.00,,SKC,0.00,VWS V14.01,2013-02-21 13:24:00,
2013-02-21 07:25:00,7.3,4.7,30.35,ENE,67,1.0,2.0,89,0.00,,SKC,0.00,VWS V14.01,2013-02-21 13:25:00,
2013-02-21 07:29:00,4.0,1.7,30.41,NE,49,1.0,2.0,90,0.00,,SKC,0.00,VWS V14.01,2013-02-21 13:29:00,
2013-02-21 07:30:00,7.7,5.1,30.38,ESE,102,1.0,2.0,89,0.00,,SKC,0.00,VWS V14.01,2013-02-21 13:30:00,
2013-02-21 07:34:00,4.3,2.0,30.39,NE,53,1.0,3.0,90,0.00,,SKC,0.00,VWS V14.01,2013-02-21 13:34:00,
2013-02-21 07:35:00,8.0,5.2,30.38,ESE,109,0.0,2.0,88,0.00,,SKC,0.00,VWS V14.01,2013-02-21 13:35:00,
2013-02-21 07:39:00,4.7,2.4,30.39,NNE,13,1.0,3.0,90,0.00,,SKC,0.00,VWS V14.01,2013-02-21 13:39:00,
2013-02-21 07:40:00,8.5,5.7,30.38,NNW,333,0.0,1.0,88,0.00,,SKC,0.00,VWS V14.01,2013-02-21 13:40:00,
2013-02-21 07:44:00,4.9,2.6,30.39,NNE,30,1.0,3.0,90,0.00,,SKC,0.00,VWS V14.01,2013-02-21 13:44:00,
2013-02-21 07:45:00,9.1,6.3,30.43,SSE,165,3.0,3.0,88,0.00,,SKC,0.00,VWS V14.01,2013-02-21 13:45:00,
2013-02-21 07:49:00,5.2,2.9,30.38,NE,42,1.0,5.0,90,0.00,,SKC,0.00,VWS V14.01,2013-02-21 13:49:00,
2013-02-21 07:50:00,9.5,6.7,30.43,SE,138,0.0,3.0,88,0.00,,SKC,0.00,VWS V14.01,2013-02-21 13:50:00,
2013-02-21 07:54:00,5.5,3.2,30.38,NNE,19,1.0,1.0,90,0.00,,SKC,0.00,VWS V14.01,2013-02-21 13:54:00,
2013-02-21 07:55:00,9.9,6.8,30.43,SE,133,0.0,1.0,87,0.00,,SKC,0.00,VWS V14.01,2013-02-21 13:55:00,
2013-02-21 07:59:00,5.8,3.5,30.38,NE,41,1.0,7.0,90,0.00,,SKC,0.00,VWS V14.01,2013-02-21 13:59:00,
2013-02-21 08:00:00,10.2,7.1,30.45,ESE,115,0.0,1.0,87,0.00,,SKC,0.00,VWS V14.01,2013-02-21 14:00:00,
2013-02-21 08:04:00,6.1,3.6,30.36,West,275,0.0,2.0,89,0.00,,SKC,0.00,VWS V14.01,2013-02-21 14:04:00,
2013-02-21 08:05:00,10.4,6.8,30.45,ESE,111,0.0,0.0,85,0.00,,SKC,0.00,VWS V14.01,2013-02-21 14:05:00,
2013-02-21 08:09:00,6.3,3.8,30.36,East,92,1.0,3.0,89,0.00,,SKC,0.00,VWS V14.01,2013-02-21 14:09:00,
2013-02-21 08:10:00,10.5,6.9,30.45,NE,49,0.0,2.0,85,0.00,,SKC,0.00,VWS V14.01,2013-02-21 14:10:00,
2013-02-21 08:14:00,6.6,4.1,30.36,NNE,30,5.0,6.0,89,0.00,,SKC,0.00,VWS V14.01,2013-02-21 14:14:00,
2013-02-21 08:15:00,10.6,7.0,30.45,ENE,75,1.0,2.0,85,0.00,,SKC,0.00,VWS V14.01,2013-02-21 14:15:00,
2013-02-21 08:19:00,6.9,4.3,30.35,NE,44,2.0,3.0,89,0.00,,SKC,0.00,VWS V14.01,2013-02-21 14:19:00,
2013-02-21 08:20:00,10.5,6.6,30.45,East,80,1.0,3.0,84,0.00,,SKC,0.00,VWS V14.01,2013-02-21 14:20:00,
2013-02-21 08:24:00,7.1,4.6,30.35,SW,230,0.0,0.0,89,0.00,,SKC,0.00,VWS V14.01,2013-02-21 14:24:00,
2013-02-21 08:25:00,10.8,7.2,30.45,SE,130,1.0,1.0,85,0.00,,SKC,0.00,VWS V14.01,2013-02-21 14:25:00,
2013-02-21 08:29:00,7.4,4.8,30.35,East,95,0.0,1.0,89,0.00,,SKC,0.00,VWS V14.01,2013-02-21 14:29:00,
2013-02-21 08:30:00,11.3,7.7,30.44,North,10,1.0,2.0,85,0.00,,SKC,0.00,VWS V14.01,2013-02-21 14:30:00,
2013-02-21 08:34:00,7.8,5.0,30.38,East,94,0.0,2.0,88,0.00,,SKC,0.00,VWS V14.01,2013-02-21 14:34:00,
2013-02-21 08:35:00,11.8,7.9,30.44,SE,129,0.0,1.0,84,0.00,,SKC,0.00,VWS V14.01,2013-02-21 14:35:00,
2013-02-21 08:39:00,8.2,5.4,30.38,ESE,109,0.0,0.0,88,0.00,,SKC,0.00,VWS V14.01,2013-02-21 14:39:00,
2013-02-21 08:40:00,11.9,7.7,30.44,West,263,1.0,2.0,83,0.00,,SKC,0.00,VWS V14.01,2013-02-21 14:40:00,
2013-02-21 08:44:00,8.7,5.9,30.38,NNW,333,1.0,1.0,88,0.00,,SKC,0.00,VWS V14.01,2013-02-21 14:44:00,
2013-02-21 08:45:00,12.0,7.8,30.44,NNW,338,1.0,5.0,83,0.00,,SKC,0.00,VWS V14.01,2013-02-21 14:45:00,
2013-02-21 08:49:00,9.3,6.5,30.43,SE,146,0.0,3.0,88,0.00,,SKC,0.00,VWS V14.01,2013-02-21 14:49:00,
2013-02-21 08:50:00,11.9,7.5,30.44,ENE,76,4.0,5.0,82,0.00,,SKC,0.00,VWS V14.01,2013-02-21 14:50:00,
2013-02-21 08:54:00,9.6,6.5,30.43,SE,134,0.0,1.0,87,0.00,,SKC,0.00,VWS V14.01,2013-02-21 14:54:00,
2013-02-21 08:55:00,12.1,7.9,30.44,NNW,341,1.0,4.0,83,0.00,,SKC,0.00,VWS V14.01,2013-02-21 14:55:00,
2013-02-21 08:59:00,10.0,6.9,30.43,SE,133,1.0,1.0,87,0.00,,SKC,0.00,VWS V14.01,2013-02-21 14:59:00,
2013-02-21 09:00:00,12.4,8.0,30.44,NNW,334,0.0,4.0,82,0.00,,SKC,0.00,VWS V14.01,2013-02-21 15:00:00,
2013-02-21 09:04:00,10.3,6.9,30.45,ESE,111,0.0,0.0,86,0.00,,SKC,0.00,VWS V14.01,2013-02-21 15:04:00,
2013-02-21 09:05:00,13.0,8.8,30.44,NE,34,1.0,3.0,83,0.00,,SKC,0.00,VWS V14.01,2013-02-21 15:05:00,
2013-02-21 09:09:00,10.4,6.8,30.45,NE,49,0.0,2.0,85,0.00,,SKC,0.00,VWS V14.01,2013-02-21 15:09:00,
2013-02-21 09:10:00,13.5,8.8,30.44,NE,49,2.0,5.0,81,0.00,,SKC,0.00,VWS V14.01,2013-02-21 15:10:00,
2013-02-21 09:14:00,10.6,7.0,30.45,ENE,71,1.0,1.0,85,0.00,,SKC,0.00,VWS V14.01,2013-02-21 15:14:00,
2013-02-21 09:15:00,13.5,8.8,30.43,NNW,331,0.0,4.0,81,0.00,,SKC,0.00,VWS V14.01,2013-02-21 15:15:00,
2013-02-21 09:19:00,10.5,6.6,30.45,ENE,76,1.0,2.0,84,0.00,,SKC,0.00,VWS V14.01,2013-02-21 15:19:00,
2013-02-21 09:20:00,13.9,9.2,30.43,NNE,12,0.0,4.0,81,0.00,,SKC,0.00,VWS V14.01,2013-02-21 15:20:00,
2013-02-21 09:24:00,10.6,7.0,30.45,East,80,0.0,1.0,85,0.00,,SKC,0.00,VWS V14.01,2013-02-21 15:24:00,
2013-02-21 09:25:00,14.5,9.7,30.43,NW,306,0.0,3.0,81,0.00,,SKC,0.00,VWS V14.01,2013-02-21 15:25:00,
2013-02-21 09:29:00,11.1,7.5,30.45,SE,131,0.0,1.0,85,0.00,,SKC,0.00,VWS V14.01,2013-02-21 15:29:00,
2013-02-21 09:30:00,15.0,10.0,30.42,NNE,28,0.0,4.0,80,0.00,,SKC,0.00,VWS V14.01,2013-02-21 15:30:00,
2013-02-21 09:34:00,11.5,7.9,30.44,ESE,119,1.0,1.0,85,0.00,,SKC,0.00,VWS V14.01,2013-02-21 15:34:00,
2013-02-21 09:35:00,15.8,10.2,30.42,NNW,337,0.0,2.0,78,0.00,,SKC,0.00,VWS V14.01,2013-02-21 15:35:00,
2013-02-21 09:39:00,12.1,8.2,30.44,ENE,71,2.0,2.0,84,0.00,,SKC,0.00,VWS V14.01,2013-02-21 15:39:00,
2013-02-21 09:40:00,16.0,10.1,30.42,WNW,294,0.0,2.0,77,0.00,,SKC,0.00,VWS V14.01,2013-02-21 15:40:00,
2013-02-21 09:44:00,12.0,7.8,30.44,NW,311,0.0,1.0,83,0.00,,SKC,0.00,VWS V14.01,2013-02-21 15:44:00,
2013-02-21 09:45:00,16.4,10.5,30.42,WNW,283,0.0,3.0,77,0.00,,SKC,0.00,VWS V14.01,2013-02-21 15:45:00,
2013-02-21 09:49:00,11.9,7.5,30.44,NE,47,2.0,2.0,82,0.00,,SKC,0.00,VWS V14.01,2013-02-21 15:49:00,
2013-02-21 09:50:00,16.8,10.6,30.42,ESE,107,0.0,4.0,76,0.00,,SKC,0.00,VWS V14.01,2013-02-21 15:50:00,
2013-02-21 09:54:00,12.0,7.8,30.44,NNW,338,2.0,4.0,83,0.00,,SKC,0.00,VWS V14.01,2013-02-21 15:54:00,
2013-02-21 09:55:00,17.4,10.9,30.42,West,265,1.0,2.0,75,0.00,,SKC,0.00,VWS V14.01,2013-02-21 15:55:00,
2013-02-21 09:59:00,12.3,8.1,30.44,WSW,245,3.0,4.0,83,0.00,,SKC,0.00,VWS V14.01,2013-02-21 15:59:00,
2013-02-21 10:00:00,17.7,10.8,30.40,WNW,302,0.0,2.0,74,0.00,,SKC,0.00,VWS V14.01,2013-02-21 16:00:00,
2013-02-21 10:04:00,12.6,8.4,30.44,NNW,342,0.0,0.0,83,0.00,,SKC,0.00,VWS V14.01,2013-02-21 16:04:00,
2013-02-21 10:05:00,18.2,11.3,30.40,ENE,78,0.0,3.0,74,0.00,,SKC,0.00,VWS V14.01,2013-02-21 16:05:00,
2013-02-21 10:09:00,13.3,8.8,30.44,East,94,3.0,3.0,82,0.00,,SKC,0.00,VWS V14.01,2013-02-21 16:09:00,
2013-02-21 10:10:00,18.3,11.1,30.40,NE,42,2.0,4.0,73,0.00,,SKC,0.00,VWS V14.01,2013-02-21 16:10:00,
2013-02-21 10:14:00,13.4,8.7,30.44,ENE,63,1.0,3.0,81,0.00,,SKC,0.00,VWS V14.01,2013-02-21 16:14:00,
2013-02-21 10:15:00,18.7,11.5,30.40,ENE,61,3.0,3.0,73,0.00,,SKC,0.00,VWS V14.01,2013-02-21 16:15:00,
2013-02-21 10:19:00,13.7,9.0,30.43,NNE,32,2.0,3.0,81,0.00,,SKC,0.00,VWS V14.01,2013-02-21 16:19:00,
2013-02-21 10:20:00,19.2,11.7,30.40,NNW,327,0.0,4.0,72,0.00,,SKC,0.00,VWS V14.01,2013-02-21 16:20:00,
2013-02-21 10:24:00,14.1,9.4,30.43,SE,130,0.0,1.0,81,0.00,,SKC,0.00,VWS V14.01,2013-02-21 16:24:00,
2013-02-21 10:25:00,19.6,11.7,30.40,NE,56,3.0,4.0,71,0.00,,SKC,0.00,VWS V14.01,2013-02-21 16:25:00,
2013-02-21 10:29:00,14.7,9.7,30.43,NE,47,1.0,4.0,80,0.00,,SKC,0.00,VWS V14.01,2013-02-21 16:29:00,
2013-02-21 10:30:00,20.0,12.1,30.39,East,87,1.0,6.0,71,0.00,,SKC,0.00,VWS V14.01,2013-02-21 16:30:00,
2013-02-21 10:34:00,15.4,10.4,30.42,East,84,0.0,0.0,80,0.00,,SKC,0.00,VWS V14.01,2013-02-21 16:34:00,
2013-02-21 10:35:00,20.7,12.5,30.39,NNW,333,3.0,3.0,70,0.00,,SKC,0.00,VWS V14.01,2013-02-21 16:35:00,
2013-02-21 10:40:00,16.0,10.1,30.42,North,10,0.0,2.0,77,0.00,,SKC,0.00,VWS V14.01,2013-02-21 16:40:00,
2013-02-21 10:45:00,16.2,10.3,30.42,West,268,0.0,3.0,77,0.00,,SKC,0.00,VWS V14.01,2013-02-21 16:45:00,
2013-02-21 10:50:00,16.6,10.7,30.42,NNE,22,1.0,4.0,77,0.00,,SKC,0.00,VWS V14.01,2013-02-21 16:50:00,
2013-02-21 10:55:00,17.2,10.9,30.42,WNW,284,1.0,2.0,76,0.00,,SKC,0.00,VWS V14.01,2013-02-21 16:55:00,
2013-02-21 11:00:00,17.5,10.6,30.42,West,272,1.0,2.0,74,0.00,,SKC,0.00,VWS V14.01,2013-02-21 17:00:00,
2013-02-21 11:05:00,18.0,11.1,30.40,WNW,288,2.0,2.0,74,0.00,,SKC,0.00,VWS V14.01,2013-02-21 17:05:00,
2013-02-21 11:10:00,18.3,11.1,30.40,East,95,2.0,4.0,73,0.00,,SKC,0.00,VWS V14.01,2013-02-21 17:10:00,
2013-02-21 11:15:00,18.5,11.3,30.40,NE,53,1.0,3.0,73,0.00,,SKC,0.00,VWS V14.01,2013-02-21 17:15:00,
2013-02-21 11:20:00,19.1,11.6,30.40,ENE,78,4.0,4.0,72,0.00,,SKC,0.00,VWS V14.01,2013-02-21 17:20:00,
2013-02-21 11:25:00,19.6,12.1,30.40,NE,55,2.0,4.0,72,0.00,,SKC,0.00,VWS V14.01,2013-02-21 17:25:00,
2013-02-21 11:30:00,19.7,11.8,30.40,East,86,1.0,6.0,71,0.00,,SKC,0.00,VWS V14.01,2013-02-21 17:30:00,
2013-02-21 11:35:00,20.4,12.5,30.39,NE,56,0.0,2.0,71,0.00,,SKC,0.00,VWS V14.01,2013-02-21 17:35:00,
2013-02-21 11:40:00,21.1,12.9,30.39,NE,40,2.0,3.0,70,0.00,,SKC,0.00,VWS V14.01,2013-02-21 17:40:00,
2013-02-21 11:45:00,21.4,12.5,30.39,South,182,0.0,3.0,68,0.00,,SKC,0.00,VWS V14.01,2013-02-21 17:45:00,
2013-02-21 11:50:00,22.5,13.6,30.39,NE,49,3.0,3.0,68,0.00,,SKC,0.00,VWS V14.01,2013-02-21 17:50:00,
2013-02-21 11:55:00,22.7,13.7,30.39,ENE,59,2.0,2.0,68,0.00,,SKC,0.00,VWS V14.01,2013-02-21 17:55:00,
2013-02-21 12:00:00,23.4,14.1,30.39,SE,145,3.0,5.0,67,0.00,,SKC,0.00,VWS V14.01,2013-02-21 18:00:00,
2013-02-21 12:05:00,23.8,13.8,30.39,NE,52,1.0,3.0,65,0.00,,SKC,0.00,VWS V14.01,2013-02-21 18:05:00,
2013-02-21 12:10:00,23.8,13.4,30.39,ENE,69,2.0,3.0,64,0.00,,SKC,0.00,VWS V14.01,2013-02-21 18:10:00,
2013-02-21 12:15:00,23.8,13.4,30.39,NNE,21,2.0,4.0,64,0.00,,SKC,0.00,VWS V14.01,2013-02-21 18:15:00,
2013-02-21 12:20:00,24.1,13.7,30.39,SSW,196,1.0,3.0,64,0.00,,SKC,0.00,VWS V14.01,2013-02-21 18:20:00,
2013-02-21 12:25:00,25.2,14.8,30.39,East,90,2.0,3.0,64,0.00,,SKC,0.00,VWS V14.01,2013-02-21 18:25:00,
2013-02-21 12:30:00,25.2,14.0,30.39,SE,125,4.0,4.0,62,0.00,,SKC,0.00,VWS V14.01,2013-02-21 18:30:00,
2013-02-21 12:35:00,25.0,14.2,30.38,East,100,1.0,5.0,63,0.00,,SKC,0.00,VWS V14.01,2013-02-21 18:35:00,
2013-02-21 12:40:00,24.9,14.5,30.38,NE,49,2.0,3.0,64,0.00,,SKC,0.00,VWS V14.01,2013-02-21 18:40:00,
2013-02-21 12:45:00,25.0,14.2,30.38,ENE,78,3.0,5.0,63,0.00,,SKC,0.00,VWS V14.01,2013-02-21 18:45:00,
2013-02-21 12:50:00,27.5,15.8,30.33,NE,53,2.0,5.0,61,0.00,,SKC,0.00,VWS V14.01,2013-02-21 18:50:00,
2013-02-21 12:51:00,24.7,14.3,30.38,East,82,3.0,3.0,64,0.00,,SKC,0.00,VWS V14.01,2013-02-21 18:51:00,
2013-02-21 12:55:00,27.5,16.2,30.33,ENE,72,3.0,5.0,62,0.00,,SKC,0.00,VWS V14.01,2013-02-21 18:55:00,
2013-02-21 12:56:00,24.8,14.0,30.38,NE,36,3.0,7.0,63,0.00,,SKC,0.00,VWS V14.01,2013-02-21 18:56:00,
2013-02-21 13:00:00,27.7,16.8,30.33,ESE,113,5.0,5.0,63,0.00,,SKC,0.00,VWS V14.01,2013-02-21 19:00:00,
2013-02-21 13:01:00,24.8,14.0,30.38,NE,53,1.0,5.0,63,0.00,,SKC,0.00,VWS V14.01,2013-02-21 19:01:00,
2013-02-21 13:05:00,28.0,17.0,30.33,NE,49,1.0,6.0,63,0.00,,SKC,0.00,VWS V14.01,2013-02-21 19:05:00,
2013-02-21 13:06:00,25.2,14.4,30.36,ESE,107,7.0,7.0,63,0.00,,SKC,0.00,VWS V14.01,2013-02-21 19:06:00,
2013-02-21 13:10:00,28.1,16.8,30.33,East,84,0.0,7.0,62,0.00,,SKC,0.00,VWS V14.01,2013-02-21 19:10:00,
2013-02-21 13:11:00,25.4,14.9,30.36,East,95,2.0,6.0,64,0.00,,SKC,0.00,VWS V14.01,2013-02-21 19:11:00,
2013-02-21 13:15:00,27.8,16.5,30.32,NE,40,1.0,6.0,62,0.00,,SKC,0.00,VWS V14.01,2013-02-21 19:15:00,
2013-02-21 13:16:00,25.7,14.5,30.36,East,98,1.0,5.0,62,0.00,,SKC,0.00,VWS V14.01,2013-02-21 19:16:00,
2013-02-21 13:20:00,27.5,16.2,30.32,NNE,17,5.0,6.0,62,0.00,,SKC,0.00,VWS V14.01,2013-02-21 19:20:00,
2013-02-21 13:21:00,26.1,15.2,30.35,East,101,2.0,7.0,63,0.00,,SKC,0.00,VWS V14.01,2013-02-21 19:21:00,
2013-02-21 13:25:00,27.3,16.4,30.32,ENE,61,3.0,5.0,63,0.00,,SKC,0.00,VWS V14.01,2013-02-21 19:25:00,
2013-02-21 13:26:00,26.3,15.1,30.35,ESE,113,3.0,4.0,62,0.00,,SKC,0.00,VWS V14.01,2013-02-21 19:26:00,
2013-02-21 13:30:00,27.4,16.5,30.31,NE,35,2.0,5.0,63,0.00,,SKC,0.00,VWS V14.01,2013-02-21 19:30:00,
2013-02-21 13:31:00,26.5,15.6,30.35,ENE,68,1.0,5.0,63,0.00,,SKC,0.00,VWS V14.01,2013-02-21 19:31:00,
2013-02-21 13:35:00,27.4,16.8,30.31,East,80,2.0,5.0,64,0.00,,SKC,0.00,VWS V14.01,2013-02-21 19:35:00,
2013-02-21 13:36:00,26.8,15.5,30.34,ESE,103,3.0,5.0,62,0.00,,SKC,0.00,VWS V14.01,2013-02-21 19:36:00,
2013-02-21 13:40:00,27.3,16.4,30.31,ENE,63,1.0,5.0,63,0.00,,SKC,0.00,VWS V14.01,2013-02-21 19:40:00,
2013-02-21 13:41:00,27.1,15.8,30.34,NW,317,0.0,4.0,62,0.00,,SKC,0.00,VWS V14.01,2013-02-21 19:41:00,
2013-02-21 13:45:00,27.5,16.9,30.30,East,83,3.0,3.0,64,0.00,,SKC,0.00,VWS V14.01,2013-02-21 19:45:00,
2013-02-21 13:46:00,27.7,16.4,30.34,ENE,78,1.0,2.0,62,0.00,,SKC,0.00,VWS V14.01,2013-02-21 19:46:00,
2013-02-21 13:50:00,27.6,16.7,30.30,NE,42,2.0,4.0,63,0.00,,SKC,0.00,VWS V14.01,2013-02-21 19:50:00,
2013-02-21 13:51:00,27.6,15.9,30.33,ENE,68,1.0,5.0,61,0.00,,SKC,0.00,VWS V14.01,2013-02-21 19:51:00,
2013-02-21 13:55:00,27.6,17.0,30.30,ENE,74,2.0,4.0,64,0.00,,SKC,0.00,VWS V14.01,2013-02-21 19:55:00,
2013-02-21 13:56:00,27.5,16.2,30.33,ENE,64,1.0,5.0,62,0.00,,SKC,0.00,VWS V14.01,2013-02-21 19:56:00,
2013-02-21 14:00:00,27.6,17.0,30.29,ENE,68,1.0,3.0,64,0.00,,SKC,0.00,VWS V14.01,2013-02-21 20:00:00,
2013-02-21 14:01:00,27.7,16.0,30.33,East,83,1.0,5.0,61,0.00,,SKC,0.00,VWS V14.01,2013-02-21 20:01:00,
2013-02-21 14:05:00,27.6,17.4,30.29,East,97,2.0,4.0,65,0.00,,SKC,0.00,VWS V14.01,2013-02-21 20:05:00,
2013-02-21 14:06:00,28.0,16.7,30.33,East,89,0.0,6.0,62,0.00,,SKC,0.00,VWS V14.01,2013-02-21 20:06:00,
2013-02-21 14:10:00,27.4,16.5,30.29,East,94,2.0,5.0,63,0.00,,SKC,0.00,VWS V14.01,2013-02-21 20:10:00,
2013-02-21 14:11:00,28.1,16.8,30.33,East,87,2.0,7.0,62,0.00,,SKC,0.00,VWS V14.01,2013-02-21 20:11:00,
2013-02-21 14:15:00,27.4,16.8,30.29,ESE,103,2.0,3.0,64,0.00,,SKC,0.00,VWS V14.01,2013-02-21 20:15:00,
2013-02-21 14:16:00,27.9,16.2,30.33,East,79,2.0,6.0,61,0.00,,SKC,0.00,VWS V14.01,2013-02-21 20:16:00,
2013-02-21 14:20:00,27.3,16.8,30.29,ENE,78,2.0,5.0,64,0.00,,SKC,0.00,VWS V14.01,2013-02-21 20:20:00,
2013-02-21 14:21:00,27.5,16.2,30.32,ENE,57,2.0,6.0,62,0.00,,SKC,0.00,VWS V14.01,2013-02-21 20:21:00,
2013-02-21 14:25:00,27.1,16.6,30.29,East,85,2.0,4.0,64,0.00,,SKC,0.00,VWS V14.01,2013-02-21 20:25:00,
2013-02-21 14:26:00,27.3,16.4,30.32,East,82,0.0,5.0,63,0.00,,SKC,0.00,VWS V14.01,2013-02-21 20:26:00,
2013-02-21 14:30:00,27.0,16.8,30.29,ENE,67,3.0,3.0,65,0.00,,SKC,0.00,VWS V14.01,2013-02-21 20:30:00,
2013-02-21 14:31:00,27.4,16.5,30.32,ENE,78,5.0,5.0,63,0.00,,SKC,0.00,VWS V14.01,2013-02-21 20:31:00,
2013-02-21 14:35:00,27.0,16.8,30.29,East,80,2.0,3.0,65,0.00,,SKC,0.00,VWS V14.01,2013-02-21 20:35:00,
2013-02-21 14:36:00,27.4,16.5,30.31,NE,46,1.0,5.0,63,0.00,,SKC,0.00,VWS V14.01,2013-02-21 20:36:00,
2013-02-21 14:40:00,26.9,16.7,30.29,ENE,65,1.0,5.0,65,0.00,,SKC,0.00,VWS V14.01,2013-02-21 20:40:00,
2013-02-21 14:41:00,27.3,16.4,30.31,NNE,22,1.0,5.0,63,0.00,,SKC,0.00,VWS V14.01,2013-02-21 20:41:00,
2013-02-21 14:45:00,26.7,16.5,30.29,NNE,16,2.0,5.0,65,0.00,,SKC,0.00,VWS V14.01,2013-02-21 20:45:00,
2013-02-21 14:46:00,27.4,16.8,30.30,NNE,27,1.0,3.0,64,0.00,,SKC,0.00,VWS V14.01,2013-02-21 20:46:00,
2013-02-21 14:50:00,26.6,16.8,30.29,NE,53,1.0,4.0,66,0.00,,SKC,0.00,VWS V14.01,2013-02-21 20:50:00,
2013-02-21 14:51:00,27.6,16.7,30.30,NNE,13,2.0,4.0,63,0.00,,SKC,0.00,VWS V14.01,2013-02-21 20:51:00,
2013-02-21 14:55:00,26.6,16.8,30.29,NNE,24,1.0,3.0,66,0.00,,SKC,0.00,VWS V14.01,2013-02-21 20:55:00,
2013-02-21 14:56:00,27.6,16.7,30.30,East,80,1.0,4.0,63,0.00,,SKC,0.00,VWS V14.01,2013-02-21 20:56:00,
2013-02-21 15:00:00,26.5,16.7,30.29,ENE,73,2.0,5.0,66,0.00,,SKC,0.00,VWS V14.01,2013-02-21 21:00:00,
2013-02-21 15:01:00,27.6,16.7,30.29,ENE,68,1.0,3.0,63,0.00,,SKC,0.00,VWS V14.01,2013-02-21 21:01:00,
2013-02-21 15:05:00,26.5,16.7,30.29,ENE,74,2.0,6.0,66,0.00,,SKC,0.00,VWS V14.01,2013-02-21 21:05:00,
2013-02-21 15:06:00,27.6,17.0,30.29,ENE,69,2.0,4.0,64,0.00,,SKC,0.00,VWS V14.01,2013-02-21 21:06:00,
2013-02-21 15:10:00,26.4,16.6,30.29,NE,55,1.0,5.0,66,0.00,,SKC,0.00,VWS V14.01,2013-02-21 21:10:00,
2013-02-21 15:11:00,27.4,16.5,30.29,East,100,5.0,5.0,63,0.00,,SKC,0.00,VWS V14.01,2013-02-21 21:11:00,
2013-02-21 15:15:00,26.3,16.9,30.30,ENE,68,2.0,5.0,67,0.00,,SKC,0.00,VWS V14.01,2013-02-21 21:15:00,
2013-02-21 15:16:00,27.4,16.8,30.29,ENE,66,3.0,3.0,64,0.00,,SKC,0.00,VWS V14.01,2013-02-21 21:16:00,
2013-02-21 15:20:00,26.1,16.7,30.30,NE,53,2.0,4.0,67,0.00,,SKC,0.00,VWS V14.01,2013-02-21 21:20:00,
2013-02-21 15:21:00,27.3,16.8,30.29,East,90,2.0,5.0,64,0.00,,SKC,0.00,VWS V14.01,2013-02-21 21:21:00,
2013-02-21 15:25:00,26.1,16.7,30.30,ESE,108,3.0,4.0,67,0.00,,SKC,0.00,VWS V14.01,2013-02-21 21:25:00,
2013-02-21 15:26:00,27.1,16.9,30.29,East,82,2.0,4.0,65,0.00,,SKC,0.00,VWS V14.01,2013-02-21 21:26:00,
2013-02-21 15:30:00,26.0,16.6,30.29,ENE,71,2.0,3.0,67,0.00,,SKC,0.00,VWS V14.01,2013-02-21 21:30:00,
2013-02-21 15:31:00,27.0,16.5,30.29,ESE,110,3.0,3.0,64,0.00,,SKC,0.00,VWS V14.01,2013-02-21 21:31:00,
2013-02-21 15:35:00,26.0,16.6,30.29,ENE,69,2.0,3.0,67,0.00,,SKC,0.00,VWS V14.01,2013-02-21 21:35:00,
2013-02-21 15:36:00,27.0,16.5,30.29,East,94,1.0,3.0,64,0.00,,SKC,0.00,VWS V14.01,2013-02-21 21:36:00,
2013-02-21 15:40:00,25.9,16.5,30.29,ENE,57,0.0,2.0,67,0.00,,SKC,0.00,VWS V14.01,2013-02-21 21:40:00,
2013-02-21 15:41:00,26.9,16.7,30.29,ENE,64,1.0,5.0,65,0.00,,SKC,0.00,VWS V14.01,2013-02-21 21:41:00,
2013-02-21 15:45:00,25.8,16.7,30.30,East,83,2.0,3.0,68,0.00,,SKC,0.00,VWS V14.01,2013-02-21 21:45:00,
2013-02-21 15:46:00,26.7,16.5,30.29,NE,50,2.0,5.0,65,0.00,,SKC,0.00,VWS V14.01,2013-02-21 21:46:00,
2013-02-21 15:50:00,25.7,16.6,30.30,East,93,0.0,3.0,68,0.00,,SKC,0.00,VWS V14.01,2013-02-21 21:50:00,
2013-02-21 15:51:00,26.6,16.8,30.29,NNE,24,1.0,4.0,66,0.00,,SKC,0.00,VWS V14.01,2013-02-21 21:51:00,
2013-02-21 15:55:00,25.5,16.8,30.30,ENE,57,0.0,2.0,69,0.00,,SKC,0.00,VWS V14.01,2013-02-21 21:55:00,
2013-02-21 15:56:00,26.6,16.8,30.29,NE,38,1.0,2.0,66,0.00,,SKC,0.00,VWS V14.01,2013-02-21 21:56:00,
2013-02-21 16:00:00,25.3,16.6,30.30,NE,55,1.0,2.0,69,0.00,,SKC,0.00,VWS V14.01,2013-02-21 22:00:00,
2013-02-21 16:01:00,26.5,16.7,30.29,ESE,107,2.0,5.0,66,0.00,,SKC,0.00,VWS V14.01,2013-02-21 22:01:00,
2013-02-21 16:05:00,25.3,16.6,30.30,NE,51,1.0,2.0,69,0.00,,SKC,0.00,VWS V14.01,2013-02-21 22:05:00,
2013-02-21 16:06:00,26.5,17.0,30.29,East,81,2.0,6.0,67,0.00,,SKC,0.00,VWS V14.01,2013-02-21 22:06:00,
2013-02-21 16:10:00,25.1,16.4,30.30,NE,51,1.0,2.0,69,0.00,,SKC,0.00,VWS V14.01,2013-02-21 22:10:00,
2013-02-21 16:12:00,26.4,16.6,30.29,NNE,30,5.0,5.0,66,0.00,,SKC,0.00,VWS V14.01,2013-02-21 22:12:00,
2013-02-21 16:15:00,24.8,16.4,30.29,NE,51,1.0,1.0,70,0.00,,SKC,0.00,VWS V14.01,2013-02-21 22:15:00,
2013-02-21 16:17:00,26.3,16.9,30.30,ESE,115,3.0,4.0,67,0.00,,SKC,0.00,VWS V14.01,2013-02-21 22:17:00,
2013-02-21 16:20:00,24.6,16.6,30.29,NE,51,0.0,1.0,71,0.00,,SKC,0.00,VWS V14.01,2013-02-21 22:20:00,
2013-02-21 16:22:00,26.1,16.7,30.30,NE,51,2.0,4.0,67,0.00,,SKC,0.00,VWS V14.01,2013-02-21 22:22:00,
2013-02-21 16:25:00,24.4,16.4,30.29,ENE,78,3.0,5.0,71,0.00,,SKC,0.00,VWS V14.01,2013-02-21 22:25:00,
2013-02-21 16:27:00,26.1,16.7,30.30,NE,46,2.0,4.0,67,0.00,,SKC,0.00,VWS V14.01,2013-02-21 22:27:00,
2013-02-21 16:30:00,24.4,16.4,30.28,SSE,157,2.0,3.0,71,0.00,,SKC,0.00,VWS V14.01,2013-02-21 22:30:00,
2013-02-21 16:32:00,26.0,16.6,30.29,ENE,69,1.0,3.0,67,0.00,,SKC,0.00,VWS V14.01,2013-02-21 22:32:00,
2013-02-21 16:35:00,24.2,16.5,30.28,ESE,123,0.0,3.0,72,0.00,,SKC,0.00,VWS V14.01,2013-02-21 22:35:00,
2013-02-21 16:37:00,26.0,16.6,30.29,ENE,67,2.0,3.0,67,0.00,,SKC,0.00,VWS V14.01,2013-02-21 22:37:00,
2013-02-21 16:40:00,23.9,16.2,30.28,ESE,123,0.0,1.0,72,0.00,,SKC,0.00,VWS V14.01,2013-02-21 22:40:00,
2013-02-21 16:42:00,25.9,16.5,30.29,ENE,58,1.0,2.0,67,0.00,,SKC,0.00,VWS V14.01,2013-02-21 22:42:00,
2013-02-21 16:45:00,23.7,16.0,30.28,East,81,0.0,2.0,72,0.00,,SKC,0.00,VWS V14.01,2013-02-21 22:45:00,
2013-02-21 16:47:00,25.8,16.7,30.30,ENE,77,1.0,3.0,68,0.00,,SKC,0.00,VWS V14.01,2013-02-21 22:47:00,
2013-02-21 16:50:00,23.6,16.2,30.28,ENE,77,0.0,1.0,73,0.00,,SKC,0.00,VWS V14.01,2013-02-21 22:50:00,
2013-02-21 16:52:00,25.7,16.6,30.30,East,93,0.0,3.0,68,0.00,,SKC,0.00,VWS V14.01,2013-02-21 22:52:00,
2013-02-21 16:55:00,23.5,16.1,30.28,East,81,0.0,2.0,73,0.00,,SKC,0.00,VWS V14.01,2013-02-21 22:55:00,
2013-02-21 16:57:00,25.5,16.8,30.30,ENE,58,0.0,2.0,69,0.00,,SKC,0.00,VWS V14.01,2013-02-21 22:57:00,
2013-02-21 17:00:00,23.2,15.8,30.27,East,81,0.0,1.0,73,0.00,,SKC,0.00,VWS V14.01,2013-02-21 23:00:00,
2013-02-21 17:02:00,25.3,16.6,30.30,NE,47,1.0,2.0,69,0.00,,SKC,0.00,VWS V14.01,2013-02-21 23:02:00,
2013-02-21 17:05:00,23.2,16.2,30.27,ENE,64,1.0,3.0,74,0.00,,SKC,0.00,VWS V14.01,2013-02-21 23:05:00,
2013-02-21 17:07:00,25.3,16.6,30.30,NE,51,1.0,2.0,69,0.00,,SKC,0.00,VWS V14.01,2013-02-21 23:07:00,
2013-02-21 17:10:00,23.0,16.0,30.27,East,99,0.0,2.0,74,0.00,,SKC,0.00,VWS V14.01,2013-02-21 23:10:00,
2013-02-21 17:12:00,25.1,16.4,30.30,NE,51,0.0,2.0,69,0.00,,SKC,0.00,VWS V14.01,2013-02-21 23:12:00,
2013-02-21 17:15:00,22.9,15.9,30.27,NE,55,0.0,2.0,74,0.00,,SKC,0.00,VWS V14.01,2013-02-21 23:15:00,
2013-02-21 17:17:00,24.8,16.4,30.29,NE,51,1.0,1.0,70,0.00,,SKC,0.00,VWS V14.01,2013-02-21 23:17:00,
2013-02-21 17:20:00,22.8,15.8,30.27,East,86,0.0,1.0,74,0.00,,SKC,0.00,VWS V14.01,2013-02-21 23:20:00,
2013-02-21 17:22:00,24.6,16.5,30.29,NE,51,0.0,1.0,71,0.00,,SKC,0.00,VWS V14.01,2013-02-21 23:22:00,
2013-02-21 17:25:00,22.7,15.7,30.27,East,93,0.0,0.0,74,0.00,,SKC,0.00,VWS V14.01,2013-02-21 23:25:00,
2013-02-21 17:27:00,24.4,16.4,30.29,ENE,78,3.0,5.0,71,0.00,,SKC,0.00,VWS V14.01,2013-02-21 23:27:00,
2013-02-21 17:30:00,22.5,15.8,30.27,ENE,63,0.0,0.0,75,0.00,,SKC,0.00,VWS V14.01,2013-02-21 23:30:00,
2013-02-21 17:32:00,24.4,16.4,30.28,NE,55,2.0,3.0,71,0.00,,SKC,0.00,VWS V14.01,2013-02-21 23:32:00,
2013-02-21 17:35:00,22.5,15.8,30.27,East,87,1.0,3.0,75,0.00,,SKC,0.00,VWS V14.01,2013-02-21 23:35:00,
2013-02-21 17:37:00,24.2,16.5,30.28,SE,124,0.0,3.0,72,0.00,,SKC,0.00,VWS V14.01,2013-02-21 23:37:00,
2013-02-21 17:40:00,22.4,15.7,30.27,ENE,68,2.0,4.0,75,0.00,,SKC,0.00,VWS V14.01,2013-02-21 23:40:00,
2013-02-21 17:42:00,23.9,16.2,30.28,ESE,123,0.0,1.0,72,0.00,,SKC,0.00,VWS V14.01,2013-02-21 23:42:00,
2013-02-21 17:45:00,22.4,15.7,30.25,East,82,1.0,3.0,75,0.00,,SKC,0.00,VWS V14.01,2013-02-21 23:45:00,
2013-02-21 17:47:00,23.7,16.0,30.28,East,81,0.0,2.0,72,0.00,,SKC,0.00,VWS V14.01,2013-02-21 23:47:00,
2013-02-21 17:50:00,22.2,15.8,30.25,East,96,3.0,7.0,76,0.00,,SKC,0.00,VWS V14.01,2013-02-21 23:50:00,
2013-02-21 17:52:00,23.6,16.2,30.28,ENE,77,0.0,1.0,73,0.00,,SKC,0.00,VWS V14.01,2013-02-21 23:52:00,
2013-02-21 17:55:00,22.2,15.8,30.25,East,93,2.0,3.0,76,0.00,,SKC,0.00,VWS V14.01,2013-02-21 23:55:00,
2013-02-21 17:57:00,23.5,16.1,30.28,East,81,0.0,2.0,73,0.00,,SKC,0.00,VWS V14.01,2013-02-21 23:57:00,
2013-02-21 18:00:00,22.1,16.0,30.25,ENE,75,2.0,3.0,77,0.00,,SKC,0.00,VWS V14.01,2013-02-22 00:00:00,
2013-02-21 18:02:00,23.2,15.8,30.27,East,81,0.0,1.0,73,0.00,,SKC,0.00,VWS V14.01,2013-02-22 00:02:00,
2013-02-21 18:05:00,22.0,15.9,30.25,ENE,67,2.0,5.0,77,0.00,,SKC,0.00,VWS V14.01,2013-02-22 00:05:00,
2013-02-21 18:07:00,23.1,16.1,30.27,ENE,65,1.0,3.0,74,0.00,,SKC,0.00,VWS V14.01,2013-02-22 00:07:00,
2013-02-21 18:10:00,21.9,16.1,30.25,ESE,115,1.0,5.0,78,0.00,,SKC,0.00,VWS V14.01,2013-02-22 00:10:00,
2013-02-21 18:12:00,23.0,16.0,30.27,East,99,0.0,2.0,74,0.00,,SKC,0.00,VWS V14.01,2013-02-22 00:12:00,
2013-02-21 18:15:00,21.8,16.0,30.24,ENE,67,2.0,7.0,78,0.00,,SKC,0.00,VWS V14.01,2013-02-22 00:15:00,
2013-02-21 18:17:00,22.9,15.9,30.27,NE,55,0.0,2.0,74,0.00,,SKC,0.00,VWS V14.01,2013-02-22 00:17:00,
2013-02-21 18:20:00,21.7,16.2,30.24,ESE,107,3.0,7.0,79,0.00,,SKC,0.00,VWS V14.01,2013-02-22 00:20:00,
2013-02-21 18:22:00,22.8,15.8,30.27,East,86,0.0,1.0,74,0.00,,SKC,0.00,VWS V14.01,2013-02-22 00:22:00,
2013-02-21 18:25:00,21.5,16.0,30.24,East,81,2.0,5.0,79,0.00,,SKC,0.00,VWS V14.01,2013-02-22 00:25:00,
2013-02-21 18:27:00,22.7,15.7,30.27,East,93,0.0,0.0,74,0.00,,SKC,0.00,VWS V14.01,2013-02-22 00:27:00,
2013-02-21 18:30:00,21.3,16.1,30.25,NE,49,4.0,7.0,80,0.00,,SKC,0.00,VWS V14.01,2013-02-22 00:30:00,
2013-02-21 18:32:00,22.5,15.8,30.27,ENE,63,0.0,0.0,75,0.00,,SKC,0.00,VWS V14.01,2013-02-22 00:32:00,
2013-02-21 18:35:00,21.0,16.1,30.25,East,85,2.0,9.0,81,0.00,,SKC,0.00,VWS V14.01,2013-02-22 00:35:00,
2013-02-21 18:37:00,22.5,15.8,30.27,East,87,1.0,3.0,75,0.00,,SKC,0.00,VWS V14.01,2013-02-22 00:37:00,
2013-02-21 18:40:00,20.9,16.3,30.25,East,88,2.0,4.0,82,0.00,,SKC,0.00,VWS V14.01,2013-02-22 00:40:00,
2013-02-21 18:42:00,22.4,15.7,30.27,ENE,68,2.0,4.0,75,0.00,,SKC,0.00,VWS V14.01,2013-02-22 00:42:00,
2013-02-21 18:45:00,20.8,16.2,30.24,East,84,2.0,3.0,82,0.00,,SKC,0.00,VWS V14.01,2013-02-22 00:45:00,
2013-02-21 18:47:00,22.4,15.7,30.25,East,82,1.0,3.0,75,0.00,,SKC,0.00,VWS V14.01,2013-02-22 00:47:00,
2013-02-21 18:50:00,20.7,16.4,30.24,East,88,1.0,5.0,83,0.00,,SKC,0.00,VWS V14.01,2013-02-22 00:50:00,
2013-02-21 18:52:00,22.2,15.8,30.25,East,96,3.0,7.0,76,0.00,,SKC,0.00,VWS V14.01,2013-02-22 00:52:00,
2013-02-21 18:55:00,20.6,16.3,30.24,East,82,1.0,2.0,83,0.00,,SKC,0.00,VWS V14.01,2013-02-22 00:55:00,
2013-02-21 18:57:00,22.2,15.8,30.25,East,93,2.0,3.0,76,0.00,,SKC,0.00,VWS V14.01,2013-02-22 00:57:00,
2013-02-21 19:00:00,20.6,16.5,30.24,East,84,0.0,3.0,84,0.00,,SKC,0.00,VWS V14.01,2013-02-22 01:00:00,
2013-02-21 19:02:00,22.1,16.0,30.25,ENE,75,2.0,3.0,77,0.00,,SKC,0.00,VWS V14.01,2013-02-22 01:02:00,
2013-02-21 19:05:00,20.6,16.5,30.24,ESE,103,1.0,2.0,84,0.00,,SKC,0.00,VWS V14.01,2013-02-22 01:05:00,
2013-02-21 19:07:00,22.0,15.9,30.25,ENE,67,2.0,5.0,77,0.00,,SKC,0.00,VWS V14.01,2013-02-22 01:07:00,
2013-02-21 19:10:00,20.7,16.6,30.24,East,94,2.0,7.0,84,0.00,,SKC,0.00,VWS V14.01,2013-02-22 01:10:00,
2013-02-21 19:12:00,21.9,16.1,30.25,ESE,115,1.0,5.0,78,0.00,,SKC,0.00,VWS V14.01,2013-02-22 01:12:00,
2013-02-21 19:15:00,20.7,16.9,30.24,East,90,3.0,5.0,85,0.00,,SKC,0.00,VWS V14.01,2013-02-22 01:15:00,
2013-02-21 19:17:00,21.8,16.0,30.24,ENE,67,2.0,7.0,78,0.00,,SKC,0.00,VWS V14.01,2013-02-22 01:17:00,
2013-02-21 19:20:00,20.6,17.1,30.24,East,86,0.0,7.0,86,0.00,,SKC,0.00,VWS V14.01,2013-02-22 01:20:00,
2013-02-21 19:22:00,21.7,16.2,30.24,ESE,103,3.0,7.0,79,0.00,,SKC,0.00,VWS V14.01,2013-02-22 01:22:00,
2013-02-21 19:25:00,20.6,17.1,30.24,ESE,106,2.0,4.0,86,0.00,,SKC,0.00,VWS V14.01,2013-02-22 01:25:00,
2013-02-21 19:27:00,21.5,16.0,30.24,East,81,2.0,5.0,79,0.00,,SKC,0.00,VWS V14.01,2013-02-22 01:27:00,
2013-02-21 19:30:00,20.5,17.0,30.23,East,82,3.0,6.0,86,0.00,,SKC,0.00,VWS V14.01,2013-02-22 01:30:00,
2013-02-21 19:32:00,21.3,16.1,30.25,NE,49,4.0,7.0,80,0.00,,SKC,0.00,VWS V14.01,2013-02-22 01:32:00,
2013-02-21 19:35:00,20.4,17.2,30.23,ENE,61,3.0,5.0,87,0.00,,SKC,0.00,VWS V14.01,2013-02-22 01:35:00,
2013-02-21 19:37:00,21.0,16.1,30.25,East,85,2.0,9.0,81,0.00,,SKC,0.00,VWS V14.01,2013-02-22 01:37:00,
2013-02-21 19:40:00,20.3,17.1,30.23,East,90,1.0,5.0,87,0.00,,SKC,0.00,VWS V14.01,2013-02-22 01:40:00,
2013-02-21 19:42:00,20.9,16.3,30.25,East,88,2.0,4.0,82,0.00,,SKC,0.00,VWS V14.01,2013-02-22 01:42:00,
2013-02-21 19:45:00,20.2,17.2,30.23,NNE,22,2.0,6.0,88,0.00,,SKC,0.00,VWS V14.01,2013-02-22 01:45:00,
2013-02-21 19:47:00,20.8,16.2,30.24,East,84,2.0,3.0,82,0.00,,SKC,0.00,VWS V14.01,2013-02-22 01:47:00,
2013-02-21 19:50:00,20.1,17.1,30.23,ENE,57,3.0,5.0,88,0.00,,SKC,0.00,VWS V14.01,2013-02-22 01:50:00,
2013-02-21 19:52:00,20.7,16.4,30.24,East,88,1.0,5.0,83,0.00,,SKC,0.00,VWS V14.01,2013-02-22 01:52:00,
2013-02-21 19:55:00,20.0,17.3,30.23,East,93,2.0,5.0,89,0.00,,SKC,0.00,VWS V14.01,2013-02-22 01:55:00,
2013-02-21 19:57:00,20.6,16.3,30.24,East,82,1.0,2.0,83,0.00,,SKC,0.00,VWS V14.01,2013-02-22 01:57:00,
2013-02-21 20:00:00,19.9,17.2,30.23,East,83,1.0,3.0,89,0.00,,SKC,0.00,VWS V14.01,2013-02-22 02:00:00,
2013-02-21 20:02:00,20.6,16.5,30.24,East,84,0.0,3.0,84,0.00,,SKC,0.00,VWS V14.01,2013-02-22 02:02:00,
2013-02-21 20:05:00,19.9,17.2,30.23,ESE,105,3.0,6.0,89,0.00,,SKC,0.00,VWS V14.01,2013-02-22 02:05:00,
2013-02-21 20:07:00,20.6,16.5,30.24,ESE,103,1.0,2.0,84,0.00,,SKC,0.00,VWS V14.01,2013-02-22 02:07:00,
2013-02-21 20:10:00,19.7,17.0,30.23,ESE,115,3.0,7.0,89,0.00,,SKC,0.00,VWS V14.01,2013-02-22 02:10:00,
2013-02-21 20:12:00,20.7,16.6,30.24,East,94,2.0,7.0,84,0.00,,SKC,0.00,VWS V14.01,2013-02-22 02:12:00,
2013-02-21 20:15:00,19.6,16.6,30.22,ENE,67,2.0,10.0,88,0.00,,SKC,0.00,VWS V14.01,2013-02-22 02:15:00,
2013-02-21 20:17:00,20.7,16.9,30.24,East,90,3.0,5.0,85,0.00,,SKC,0.00,VWS V14.01,2013-02-22 02:17:00,
2013-02-21 20:20:00,19.4,16.7,30.22,East,80,3.0,9.0,89,0.00,,SKC,0.00,VWS V14.01,2013-02-22 02:20:00,
2013-02-21 20:22:00,20.6,17.1,30.24,East,86,0.0,7.0,86,0.00,,SKC,0.00,VWS V14.01,2013-02-22 02:22:00,
2013-02-21 20:25:00,19.2,16.5,30.22,East,92,3.0,8.0,89,0.00,,SKC,0.00,VWS V14.01,2013-02-22 02:25:00,
2013-02-21 20:27:00,20.6,17.1,30.24,ESE,106,2.0,4.0,86,0.00,,SKC,0.00,VWS V14.01,2013-02-22 02:27:00,
2013-02-21 20:30:00,18.9,16.5,30.20,East,91,7.0,7.0,90,0.00,,SKC,0.00,VWS V14.01,2013-02-22 02:30:00,
2013-02-21 20:32:00,20.5,17.0,30.23,East,82,3.0,6.0,86,0.00,,SKC,0.00,VWS V14.01,2013-02-22 02:32:00,
2013-02-21 20:35:00,18.8,16.4,30.20,East,92,3.0,10.0,90,0.00,,SKC,0.00,VWS V14.01,2013-02-22 02:35:00,
2013-02-21 20:37:00,20.4,17.2,30.23,ENE,61,3.0,5.0,87,0.00,,SKC,0.00,VWS V14.01,2013-02-22 02:37:00,
2013-02-21 20:40:00,18.7,16.3,30.20,NE,50,2.0,6.0,90,0.00,,SKC,0.00,VWS V14.01,2013-02-22 02:40:00,
2013-02-21 20:42:00,20.3,17.1,30.23,East,90,1.0,5.0,87,0.00,,SKC,0.00,VWS V14.01,2013-02-22 02:42:00,
2013-02-21 20:45:00,18.6,16.4,30.19,East,80,3.0,10.0,91,0.00,,SKC,0.00,VWS V14.01,2013-02-22 02:45:00,
2013-02-21 20:47:00,20.2,17.2,30.23,NE,53,2.0,2.0,88,0.00,,SKC,0.00,VWS V14.01,2013-02-22 02:47:00,
2013-02-21 20:50:00,18.6,16.4,30.19,ENE,78,4.0,7.0,91,0.00,,SKC,0.00,VWS V14.01,2013-02-22 02:50:00,
2013-02-21 20:52:00,20.1,17.1,30.23,ENE,57,3.0,3.0,88,0.00,,SKC,0.00,VWS V14.01,2013-02-22 02:52:00,
2013-02-21 20:55:00,18.6,16.4,30.19,East,90,1.0,5.0,91,0.00,,SKC,0.00,VWS V14.01,2013-02-22 02:55:00,
2013-02-21 20:57:00,20.0,17.3,30.23,East,99,2.0,2.0,89,0.00,,SKC,0.00,VWS V14.01,2013-02-22 02:57:00,
2013-02-21 21:00:00,18.6,16.4,30.19,East,90,1.0,3.0,91,0.00,,SKC,0.00,VWS V14.01,2013-02-22 03:00:00,
2013-02-21 21:02:00,19.9,17.2,30.23,East,83,1.0,3.0,89,0.00,,SKC,0.00,VWS V14.01,2013-02-22 03:02:00,
2013-02-21 21:05:00,18.5,16.3,30.19,SE,134,1.0,7.0,91,0.00,,SKC,0.00,VWS V14.01,2013-02-22 03:05:00,
2013-02-21 21:07:00,19.8,17.1,30.23,ENE,68,1.0,3.0,89,0.00,,SKC,0.00,VWS V14.01,2013-02-22 03:07:00,
2013-02-21 21:10:00,18.5,16.3,30.19,ESE,110,3.0,8.0,91,0.00,,SKC,0.00,VWS V14.01,2013-02-22 03:10:00,
2013-02-21 21:12:00,19.7,17.0,30.23,ESE,122,3.0,3.0,89,0.00,,SKC,0.00,VWS V14.01,2013-02-22 03:12:00,
2013-02-21 21:15:00,18.6,16.4,30.18,SE,137,3.0,3.0,91,0.00,,SKC,0.00,VWS V14.01,2013-02-22 03:15:00,
2013-02-21 21:17:00,19.6,16.6,30.22,ENE,71,1.0,2.0,88,0.00,,SKC,0.00,VWS V14.01,2013-02-22 03:17:00,
2013-02-21 21:20:00,18.6,16.4,30.18,ESE,111,2.0,5.0,91,0.00,,SKC,0.00,VWS V14.01,2013-02-22 03:20:00,
2013-02-21 21:22:00,19.4,16.7,30.22,East,86,5.0,5.0,89,0.00,,SKC,0.00,VWS V14.01,2013-02-22 03:22:00,
2013-02-21 21:25:00,18.6,16.4,30.18,ESE,111,3.0,6.0,91,0.00,,SKC,0.00,VWS V14.01,2013-02-22 03:25:00,
2013-02-21 21:27:00,19.2,16.5,30.22,ENE,75,3.0,3.0,89,0.00,,SKC,0.00,VWS V14.01,2013-02-22 03:27:00,
2013-02-21 21:30:00,18.6,16.4,30.17,East,84,2.0,3.0,91,0.00,,SKC,0.00,VWS V14.01,2013-02-22 03:30:00,
2013-02-21 21:32:00,18.9,16.5,30.20,ENE,73,5.0,7.0,90,0.00,,SKC,0.00,VWS V14.01,2013-02-22 03:32:00,
2013-02-21 21:35:00,18.5,16.3,30.17,ENE,71,2.0,5.0,91,0.00,,SKC,0.00,VWS V14.01,2013-02-22 03:35:00,
2013-02-21 21:37:00,18.8,16.4,30.20,East,85,1.0,3.0,90,0.00,,SKC,0.00,VWS V14.01,2013-02-22 03:37:00,
2013-02-21 21:40:00,18.5,16.3,30.17,ESE,107,2.0,5.0,91,0.00,,SKC,0.00,VWS V14.01,2013-02-22 03:40:00,
2013-02-21 21:42:00,18.7,16.3,30.20,SE,128,6.0,10.0,90,0.00,,SKC,0.00,VWS V14.01,2013-02-22 03:42:00,
2013-02-21 21:45:00,18.5,16.6,30.17,ESE,119,4.0,6.0,92,0.00,,SKC,0.00,VWS V14.01,2013-02-22 03:45:00,
2013-02-21 21:47:00,18.6,16.4,30.19,East,91,5.0,5.0,91,0.00,,SKC,0.00,VWS V14.01,2013-02-22 03:47:00,
2013-02-21 21:50:00,18.5,16.6,30.17,ESE,102,2.0,7.0,92,0.00,,SKC,0.00,VWS V14.01,2013-02-22 03:50:00,
2013-02-21 21:52:00,18.6,16.4,30.19,East,83,2.0,4.0,91,0.00,,SKC,0.00,VWS V14.01,2013-02-22 03:52:00,
2013-02-21 21:55:00,18.6,16.7,30.17,ESE,110,4.0,8.0,92,0.00,,SKC,0.00,VWS V14.01,2013-02-22 03:55:00,
2013-02-21 21:57:00,18.6,16.4,30.19,East,85,1.0,2.0,91,0.00,,SKC,0.00,VWS V14.01,2013-02-22 03:57:00,
2013-02-21 22:00:00,18.6,16.7,30.16,East,98,2.0,5.0,92,0.00,,SKC,0.00,VWS V14.01,2013-02-22 04:00:00,
2013-02-21 22:02:00,18.5,16.3,30.19,East,90,1.0,1.0,91,0.00,,SKC,0.00,VWS V14.01,2013-02-22 04:02:00,
2013-02-21 22:05:00,18.6,16.7,30.16,ESE,111,1.0,3.0,92,0.00,,SKC,0.00,VWS V14.01,2013-02-22 04:05:00,
2013-02-21 22:07:00,18.5,16.3,30.19,East,82,1.0,2.0,91,0.00,,SKC,0.00,VWS V14.01,2013-02-22 04:07:00,
2013-02-21 22:10:00,18.6,16.7,30.16,East,99,2.0,6.0,92,0.00,,SKC,0.00,VWS V14.01,2013-02-22 04:10:00,
2013-02-21 22:12:00,18.5,16.3,30.19,East,95,2.0,3.0,91,0.00,,SKC,0.00,VWS V14.01,2013-02-22 04:12:00,
2013-02-21 22:15:00,18.6,16.7,30.15,East,97,3.0,5.0,92,0.00,,SKC,0.00,VWS V14.01,2013-02-22 04:15:00,
2013-02-21 22:17:00,18.6,16.4,30.18,SE,128,2.0,3.0,91,0.00,,SKC,0.00,VWS V14.01,2013-02-22 04:17:00,
2013-02-21 22:20:00,18.6,16.7,30.15,ENE,77,2.0,7.0,92,0.00,,SKC,0.00,VWS V14.01,2013-02-22 04:20:00,
2013-02-21 22:22:00,18.6,16.4,30.18,ENE,69,3.0,6.0,91,0.00,,SKC,0.00,VWS V14.01,2013-02-22 04:22:00,
2013-02-21 22:25:00,18.6,16.9,30.15,ENE,61,2.0,6.0,93,0.00,,SKC,0.00,VWS V14.01,2013-02-22 04:25:00,
2013-02-21 22:27:00,18.6,16.4,30.18,East,100,2.0,3.0,91,0.00,,SKC,0.00,VWS V14.01,2013-02-22 04:27:00,
2013-02-21 22:30:00,18.6,16.9,30.14,ESE,107,1.0,7.0,93,0.00,,SKC,0.00,VWS V14.01,2013-02-22 04:30:00,
2013-02-21 22:32:00,18.6,16.4,30.17,East,82,3.0,3.0,91,0.00,,SKC,0.00,VWS V14.01,2013-02-22 04:32:00,
2013-02-21 22:35:00,18.6,16.9,30.14,SE,126,3.0,7.0,93,0.00,,SKC,0.00,VWS V14.01,2013-02-22 04:35:00,
2013-02-21 22:37:00,18.5,16.3,30.17,ENE,78,3.0,3.0,91,0.00,,SKC,0.00,VWS V14.01,2013-02-22 04:37:00,
2013-02-21 22:40:00,18.6,16.9,30.14,NE,42,2.0,9.0,93,0.00,,SKC,0.00,VWS V14.01,2013-02-22 04:40:00,
2013-02-21 22:42:00,18.5,16.3,30.17,SE,146,3.0,3.0,91,0.00,,SKC,0.00,VWS V14.01,2013-02-22 04:42:00,
2013-02-21 22:45:00,18.7,17.0,30.14,East,82,5.0,8.0,93,0.00,,SKC,0.00,VWS V14.01,2013-02-22 04:45:00,
2013-02-21 22:47:00,18.5,16.6,30.17,ESE,119,4.0,4.0,92,0.00,,SKC,0.00,VWS V14.01,2013-02-22 04:47:00,
2013-02-21 22:50:00,18.6,16.7,30.14,ESE,112,5.0,6.0,92,0.00,,SKC,0.00,VWS V14.01,2013-02-22 04:50:00,
2013-02-21 22:52:00,18.5,16.6,30.17,ESE,102,2.0,2.0,92,0.00,,SKC,0.00,VWS V14.01,2013-02-22 04:52:00,
2013-02-21 22:55:00,18.6,16.7,30.14,ESE,122,2.0,5.0,92,0.00,,SKC,0.00,VWS V14.01,2013-02-22 04:55:00,
2013-02-21 22:57:00,18.6,16.7,30.17,East,84,2.0,4.0,92,0.00,,SKC,0.00,VWS V14.01,2013-02-22 04:57:00,
2013-02-21 23:00:00,18.5,16.6,30.17,ESE,120,4.0,5.0,92,0.00,,SKC,0.00,VWS V14.01,2013-02-22 05:00:00,
2013-02-21 23:01:00,18.6,16.7,30.17,East,83,2.0,5.0,92,0.00,,SKC,0.00,VWS V14.01,2013-02-22 05:01:00,
2013-02-21 23:05:00,18.6,16.7,30.13,East,90,2.0,8.0,92,0.00,,SKC,0.00,VWS V14.01,2013-02-22 05:05:00,
2013-02-21 23:06:00,18.6,16.7,30.16,ESE,107,2.0,3.0,92,0.00,,SKC,0.00,VWS V14.01,2013-02-22 05:06:00,
2013-02-21 23:10:00,18.6,16.7,30.13,ESE,105,1.0,7.0,92,0.00,,SKC,0.00,VWS V14.01,2013-02-22 05:10:00,
2013-02-21 23:11:00,18.6,16.7,30.16,East,88,2.0,4.0,92,0.00,,SKC,0.00,VWS V14.01,2013-02-22 05:11:00,
2013-02-21 23:15:00,18.6,16.7,30.13,East,84,5.0,8.0,92,0.00,,SKC,0.00,VWS V14.01,2013-02-22 05:15:00,
2013-02-21 23:16:00,18.6,16.7,30.16,East,91,3.0,5.0,92,0.00,,SKC,0.00,VWS V14.01,2013-02-22 05:16:00,
2013-02-21 23:20:00,18.6,16.7,30.13,ESE,105,3.0,7.0,92,0.00,,SKC,0.00,VWS V14.01,2013-02-22 05:20:00,
2013-02-21 23:21:00,18.6,16.7,30.15,ESE,107,3.0,5.0,92,0.00,,SKC,0.00,VWS V14.01,2013-02-22 05:21:00,
2013-02-21 23:25:00,18.6,16.7,30.13,ESE,113,2.0,6.0,92,0.00,,SKC,0.00,VWS V14.01,2013-02-22 05:25:00,
2013-02-21 23:26:00,18.6,16.9,30.15,East,81,3.0,6.0,93,0.00,,SKC,0.00,VWS V14.01,2013-02-22 05:26:00,
2013-02-21 23:30:00,18.6,16.7,30.13,ESE,113,2.0,3.0,92,0.00,,SKC,0.00,VWS V14.01,2013-02-22 05:30:00,
2013-02-21 23:31:00,18.6,16.9,30.15,ESE,119,3.0,7.0,93,0.00,,SKC,0.00,VWS V14.01,2013-02-22 05:31:00,
2013-02-21 23:35:00,18.6,16.7,30.13,East,84,1.0,5.0,92,0.00,,SKC,0.00,VWS V14.01,2013-02-22 05:35:00,
2013-02-21 23:36:00,18.6,16.9,30.14,East,87,7.0,7.0,93,0.00,,SKC,0.00,VWS V14.01,2013-02-22 05:36:00,
2013-02-21 23:40:00,18.6,16.4,30.13,East,94,5.0,5.0,91,0.00,,SKC,0.00,VWS V14.01,2013-02-22 05:40:00,
2013-02-21 23:41:00,18.6,16.9,30.14,ENE,78,3.0,9.0,93,0.00,,SKC,0.00,VWS V14.01,2013-02-22 05:41:00,
2013-02-21 23:45:00,18.6,16.4,30.12,East,95,2.0,6.0,91,0.00,,SKC,0.00,VWS V14.01,2013-02-22 05:45:00,
2013-02-21 23:46:00,18.6,16.7,30.14,ENE,74,4.0,8.0,92,0.00,,SKC,0.00,VWS V14.01,2013-02-22 05:46:00,
2013-02-21 23:50:00,18.6,16.4,30.12,ESE,108,1.0,5.0,91,0.00,,SKC,0.00,VWS V14.01,2013-02-22 05:50:00,
2013-02-21 23:51:00,18.6,16.7,30.14,East,96,5.0,5.0,92,0.00,,SKC,0.00,VWS V14.01,2013-02-22 05:51:00,
2013-02-21 23:55:00,18.6,16.4,30.12,East,90,3.0,5.0,91,0.00,,SKC,0.00,VWS V14.01,2013-02-22 05:55:00,
2013-02-21 23:56:00,18.6,16.7,30.14,ESE,119,2.0,5.0,92,0.00,,SKC,0.00,VWS V14.01,2013-02-22 05:56:00,